owner,sensor,date,latitude,longitude,vertical_datum,sea_water_temperature,qcFlag 
NERRS,ioos:station:NOAA.NERRS:gndbhwq:1,2014-02-24T21:00:00Z,30.4178,-88.4054,0.0,16.6,2 
NERRS,ioos:station:NOAA.NERRS:gndbhwq:1,2014-02-24T22:00:00Z,30.4178,-88.4054,0.0,16.6,2 
NERRS,ioos:station:NOAA.NERRS:gndbhwq:1,2014-02-24T23:00:00Z,30.4178,-88.4054,0.0,16.6,2 
NERRS,ioos:station:NOAA.NERRS:gndbhwq:1,2014-02-25T00:00:00Z,30.4178,-88.4054,0.0,16.6,2 
NERRS,ioos:station:NOAA.NERRS:gndbhwq:1,2014-02-25T01:00:00Z,30.4178,-88.4054,0.0,16.6,2 
NERRS,ioos:station:NOAA.NERRS:gndbhwq:1,2014-02-25T02:00:00Z,30.4178,-88.4054,0.0,16.6,2 
NERRS,ioos:station:NOAA.NERRS:gndbhwq:1,2014-02-25T03:00:00Z,30.4178,-88.4054,0.0,16.6,2 
NERRS,ioos:station:NOAA.NERRS:gndbhwq:1,2014-02-25T04:00:00Z,30.4178,-88.4054,0.0,16.7,2 
NERRS,ioos:station:NOAA.NERRS:gndbhwq:1,2014-02-25T05:00:00Z,30.4178,-88.4054,0.0,16.7,2 
NERRS,ioos:station:NOAA.NERRS:gndbhwq:1,2014-02-25T06:00:00Z,30.4178,-88.4054,0.0,16.7,2 
NERRS,ioos:station:NOAA.NERRS:gndbhwq:1,2014-02-25T07:00:00Z,30.4178,-88.4054,0.0,16.7,2 
NERRS,ioos:station:NOAA.NERRS:gndbhwq:1,2014-02-25T23:00:00Z,30.4178,-88.4054,0.0,16.5,2 
NERRS,ioos:station:NOAA.NERRS:gndbhwq:1,2014-02-26T00:00:00Z,30.4178,-88.4054,0.0,16.4,2 
NERRS,ioos:station:NOAA.NERRS:gndbhwq:1,2014-02-26T01:00:00Z,30.4178,-88.4054,0.0,16.5,2 
NERRS,ioos:station:NOAA.NERRS:gndbhwq:1,2014-02-26T02:00:00Z,30.4178,-88.4054,0.0,16.5,2 
NERRS,ioos:station:NOAA.NERRS:gndbhwq:1,2014-02-26T03:00:00Z,30.4178,-88.4054,0.0,16.5,2 
NERRS,ioos:station:NOAA.NERRS:gndbhwq:1,2014-02-26T04:00:00Z,30.4178,-88.4054,0.0,16.5,2 
NERRS,ioos:station:NOAA.NERRS:gndbhwq:1,2014-02-26T05:00:00Z,30.4178,-88.4054,0.0,16.5,2 
NERRS,ioos:station:NOAA.NERRS:gndbhwq:1,2014-02-26T06:00:00Z,30.4178,-88.4054,0.0,16.6,2 
NERRS,ioos:station:NOAA.NERRS:gndbhwq:1,2014-02-26T07:00:00Z,30.4178,-88.4054,0.0,16.7,2 
NERRS,ioos:station:NOAA.NERRS:gndbhwq:1,2014-02-26T08:00:00Z,30.4178,-88.4054,0.0,16.8,2 
NERRS,ioos:station:NOAA.NERRS:gndbhwq:1,2014-02-26T09:00:00Z,30.4178,-88.4054,0.0,16.7,2 
NERRS,ioos:station:NOAA.NERRS:gndbhwq:1,2014-02-26T10:00:00Z,30.4178,-88.4054,0.0,16.4,2 
NERRS,ioos:station:NOAA.NERRS:gndbhwq:1,2014-02-26T11:00:00Z,30.4178,-88.4054,0.0,16.2,2 
NERRS,ioos:station:NOAA.NERRS:gndbhwq:1,2014-02-26T12:00:00Z,30.4178,-88.4054,0.0,15.8,2 
NERRS,ioos:station:NOAA.NERRS:gndbhwq:1,2014-02-26T13:00:00Z,30.4178,-88.4054,0.0,15.7,2 
NERRS,ioos:station:NOAA.NERRS:gndbhwq:1,2014-02-26T14:00:00Z,30.4178,-88.4054,0.0,15.4,2 
NERRS,ioos:station:NOAA.NERRS:gndbhwq:1,2014-02-26T15:00:00Z,30.4178,-88.4054,0.0,15.3,2 
NERRS,ioos:station:NOAA.NERRS:gndbhwq:1,2014-02-26T16:00:00Z,30.4178,-88.4054,0.0,15.1,2 
NERRS,ioos:station:NOAA.NERRS:gndbhwq:1,2014-02-26T17:00:00Z,30.4178,-88.4054,0.0,14.9,2 
NERRS,ioos:station:NOAA.NERRS:gndbhwq:1,2014-02-26T19:00:00Z,30.4178,-88.4054,0.0,14.5,2 
NERRS,ioos:station:NOAA.NERRS:gndbhwq:1,2014-02-26T20:00:00Z,30.4178,-88.4054,0.0,14.4,2 
NERRS,ioos:station:NOAA.NERRS:gndbhwq:1,2014-02-26T21:00:00Z,30.4178,-88.4054,0.0,14.3,2 
NERRS,ioos:station:NOAA.NERRS:gndbhwq:1,2014-02-26T22:00:00Z,30.4178,-88.4054,0.0,14.2,2 
NERRS,ioos:station:NOAA.NERRS:gndbhwq:1,2014-02-26T23:00:00Z,30.4178,-88.4054,0.0,14.0,2 
NERRS,ioos:station:NOAA.NERRS:gndbhwq:1,2014-02-27T00:00:00Z,30.4178,-88.4054,0.0,13.7,2 
NERRS,ioos:station:NOAA.NERRS:gndbhwq:1,2014-02-27T01:00:00Z,30.4178,-88.4054,0.0,13.7,2 
NERRS,ioos:station:NOAA.NERRS:gndbhwq:1,2014-02-27T02:00:00Z,30.4178,-88.4054,0.0,13.5,2 
NERRS,ioos:station:NOAA.NERRS:gndbhwq:1,2014-02-27T03:00:00Z,30.4178,-88.4054,0.0,13.3,2 
NERRS,ioos:station:NOAA.NERRS:gndbhwq:1,2014-02-27T04:00:00Z,30.4178,-88.4054,0.0,13.0,2 
NERRS,ioos:station:NOAA.NERRS:gndbhwq:1,2014-02-27T05:00:00Z,30.4178,-88.4054,0.0,12.7,2 
NERRS,ioos:station:NOAA.NERRS:gndbhwq:1,2014-02-27T06:00:00Z,30.4178,-88.4054,0.0,12.5,2 
NERRS,ioos:station:NOAA.NERRS:gndbhwq:1,2014-02-27T07:00:00Z,30.4178,-88.4054,0.0,12.3,2 
NERRS,ioos:station:NOAA.NERRS:gndbhwq:1,2014-02-27T08:00:00Z,30.4178,-88.4054,0.0,12.0,2 
NERRS,ioos:station:NOAA.NERRS:gndbhwq:1,2014-02-27T09:00:00Z,30.4178,-88.4054,0.0,11.7,2 
NERRS,ioos:station:NOAA.NERRS:gndbhwq:1,2014-02-27T10:00:00Z,30.4178,-88.4054,0.0,11.4,2 
NERRS,ioos:station:NOAA.NERRS:gndbhwq:1,2014-02-27T11:00:00Z,30.4178,-88.4054,0.0,11.0,2 
NERRS,ioos:station:NOAA.NERRS:gndbhwq:1,2014-02-27T12:00:00Z,30.4178,-88.4054,0.0,10.7,2 
NERRS,ioos:station:NOAA.NERRS:gndbhwq:1,2014-02-27T13:00:00Z,30.4178,-88.4054,0.0,10.5,2 
NERRS,ioos:station:NOAA.NERRS:gndbhwq:1,2014-02-27T14:00:00Z,30.4178,-88.4054,0.0,10.2,2 
NERRS,ioos:station:NOAA.NERRS:gndbhwq:1,2014-02-27T15:00:00Z,30.4178,-88.4054,0.0,10.1,2 
NERRS,ioos:station:NOAA.NERRS:gndbhwq:1,2014-02-27T16:00:00Z,30.4178,-88.4054,0.0,10.2,2 
NERRS,ioos:station:NOAA.NERRS:gndbhwq:1,2014-02-27T17:00:00Z,30.4178,-88.4054,0.0,10.3,2 
NERRS,ioos:station:NOAA.NERRS:gndbhwq:1,2014-02-27T18:00:00Z,30.4178,-88.4054,0.0,10.6,2 
NERRS,ioos:station:NOAA.NERRS:gndbhwq:1,2014-02-27T19:00:00Z,30.4178,-88.4054,0.0,11.0,2 
NERRS,ioos:station:NOAA.NERRS:gndbhwq:1,2014-02-27T20:00:00Z,30.4178,-88.4054,0.0,11.6,2 
NERRS,ioos:station:NOAA.NERRS:gndbhwq:1,2014-02-27T21:00:00Z,30.4178,-88.4054,0.0,12.0,2 
NERRS,ioos:station:NOAA.NERRS:gndbhwq:1,2014-02-27T22:00:00Z,30.4178,-88.4054,0.0,12.4,2 
NERRS,ioos:station:NOAA.NERRS:gndbhwq:1,2014-02-27T23:00:00Z,30.4178,-88.4054,0.0,12.5,2 
NERRS,ioos:station:NOAA.NERRS:gndbhwq:1,2014-02-28T00:00:00Z,30.4178,-88.4054,0.0,14.4,2 
NERRS,ioos:station:NOAA.NERRS:gndbhwq:1,2014-02-28T01:00:00Z,30.4178,-88.4054,0.0,14.7,2 
NERRS,ioos:station:NOAA.NERRS:gndbhwq:1,2014-02-28T02:00:00Z,30.4178,-88.4054,0.0,14.4,2 
NERRS,ioos:station:NOAA.NERRS:gndbhwq:1,2014-02-28T03:00:00Z,30.4178,-88.4054,0.0,14.3,2 
NERRS,ioos:station:NOAA.NERRS:gndbhwq:1,2014-02-28T04:00:00Z,30.4178,-88.4054,0.0,14.5,2 
NERRS,ioos:station:NOAA.NERRS:gndbhwq:1,2014-02-28T05:00:00Z,30.4178,-88.4054,0.0,14.3,2 
NERRS,ioos:station:NOAA.NERRS:gndbhwq:1,2014-02-28T06:00:00Z,30.4178,-88.4054,0.0,14.1,2 
NERRS,ioos:station:NOAA.NERRS:gndbhwq:1,2014-02-28T15:00:00Z,30.4178,-88.4054,0.0,12.6,2 
NERRS,ioos:station:NOAA.NERRS:gndbhwq:1,2014-02-28T16:00:00Z,30.4178,-88.4054,0.0,12.5,2 
NERRS,ioos:station:NOAA.NERRS:gndbhwq:1,2014-02-28T17:00:00Z,30.4178,-88.4054,0.0,12.8,2 
NERRS,ioos:station:NOAA.NERRS:gndbhwq:1,2014-02-28T18:00:00Z,30.4178,-88.4054,0.0,12.9,2 
NERRS,ioos:station:NOAA.NERRS:gndbhwq:1,2014-02-28T19:00:00Z,30.4178,-88.4054,0.0,12.8,2 
NERRS,ioos:station:NOAA.NERRS:gndbhwq:1,2014-02-28T20:00:00Z,30.4178,-88.4054,0.0,12.6,2 
NERRS,ioos:station:NOAA.NERRS:gndbhwq:1,2014-02-28T21:00:00Z,30.4178,-88.4054,0.0,12.4,2 
NERRS,ioos:station:NOAA.NERRS:gndbhwq:1,2014-02-28T22:00:00Z,30.4178,-88.4054,0.0,11.9,2 
NERRS,ioos:station:NOAA.NERRS:gndbhwq:1,2014-02-28T23:00:00Z,30.4178,-88.4054,0.0,12.0,2 
 
DISCLAIMER: The Gulf of Mexico Coastal and Ocean Observing (GCOOS) Data Portal aggregates data from the regional data providers for the convenience of all data users. Data published on this website should not be used for navigation or certain other uses as we cannot guarantee data accuracy or availability. The data and delivery services are provided 'as is' without warranty of any kind. Data Source: Gulf of Mexico Coastal Ocean Observing System Data Portal (http://data.gcoos.org/) 
